DW6954 Weather Reports


time (UTC)temp
C
wind
direction
speed
KPH
gust
KPH
rain 1hr
cm
rain 24hr
cm
rain mn
cm
humidity
%
barometer
mb
20260510224524 8 31 0.0 4.8 0.00 0.03 0.03 95 1030.4
20260510224008 8 50 0.0 1.6 0.00 0.03 0.03 95 1030.4
20260510223608 7 44 0.0 3.2 0.00 0.03 0.03 95 1030.4
20260510223008 7 7 0.0 3.2 0.03 0.03 0.03 95 1030.4
20260510222508 7 317 0.0 1.6 0.03 0.03 0.03 95 1030.5
20260510222007 7 47 0.0 3.2 0.03 0.03 0.03 95 1030.4
20260510221507 7 62 0.0 1.6 0.03 0.03 0.03 95 1030.4
20260510221007 7 62 0.0 1.6 0.03 0.03 0.03 95 1030.3
20260510220507 6 61 0.0 1.6 0.03 0.03 0.03 95 1030.4
20260510220011 6 76 0.0 1.6 0.03 0.03 0.03 95 1030.3
20260510215507 6 39 0.0 1.6 0.03 0.03 0.03 95 1030.3
20260510215006 6 62 0.0 1.6 0.03 0.03 0.03 95 1030.3
20260510214505 6 66 0.0 1.6 0.03 0.03 0.03 95 1030.2
20260510214005 6 47 0.0 1.6 0.03 0.03 0.03 94 1030.2
20260510213505 6 47 0.0 0.0 0.00 0.00 0.00 94 1030.1
20260510213004 6 47 0.0 3.2 0.00 0.00 0.00 94 1030.1
20260510212505 6 12 0.0 0.0 0.00 0.00 0.00 94 1030.1
20260510212008 6 12 0.0 0.0 0.00 0.00 0.00 94 1030.0
20260510211502 6 14 0.0 0.0 0.00 0.00 0.00 94 1029.9
20260510211001 6 14 0.0 0.0 0.00 0.00 0.00 94 1029.8
20260510210502 6 14 0.0 1.6 0.00 0.00 0.00 94 1029.8
20260510210002 6 49 0.0 1.6 0.00 0.00 0.00 94 1029.7
20260510205503 6 49 0.0 0.0 0.00 0.00 0.00 94 1029.7
20260510205100 6 49 0.0 0.0 0.00 0.00 0.00 94 1029.7
20260510204601 6 49 0.0 1.6 0.00 0.00 0.00 94 1029.6
20260510204103 6 49 0.0 1.6 0.00 0.00 0.00 94 1029.6
20260510203601 6 49 0.0 0.0 0.00 0.00 0.00 94 1029.5
20260510203057 6 49 0.0 1.6 0.00 0.00 0.00 94 1029.5
20260510202557 6 49 0.0 1.6 0.00 0.00 0.00 94 1029.4
20260510202056 5 31 0.0 0.0 0.00 0.00 0.00 94 1029.5
20260510201557 5 30 0.0 0.0 0.00 0.00 0.00 94 1029.5
20260510201055 5 72 0.0 0.0 0.00 0.00 0.00 94 1029.4
20260510200555 5 169 0.0 0.0 0.00 0.00 0.00 94 1029.3
20260510200116 5 169 0.0 0.0 0.00 0.00 0.00 94 1029.3
20260510195553 5 169 0.0 0.0 0.00 0.00 0.00 94 1029.2
20260510195052 5 169 0.0 0.0 0.00 0.00 0.00 94 1029.2
20260510194559 5 169 0.0 0.0 0.00 0.00 0.00 94 1029.1
20260510194051 5 169 0.0 0.0 0.00 0.00 0.00 94 1029.0
20260510193551 5 169 0.0 0.0 0.00 0.00 0.00 94 1029.0
20260510193057 5 169 0.0 0.0 0.00 0.00 0.00 94 1028.9
20260510192549 5 169 0.0 0.0 0.00 0.00 0.00 94 1028.9
20260510192050 5 169 0.0 0.0 0.00 0.00 0.00 94 1028.9
20260510191549 5 173 0.0 0.0 0.00 0.00 0.00 94 1028.9
20260510191050 5 173 0.0 0.0 0.00 0.00 0.00 94 1028.8
20260510190547 5 173 0.0 0.0 0.00 0.00 0.00 94 1028.8
20260510190048 5 173 0.0 0.0 0.00 0.00 0.00 93 1028.7
20260510185549 5 173 0.0 0.0 0.00 0.00 0.00 93 1028.7
20260510185046 5 173 0.0 0.0 0.00 0.00 0.00 93 1028.6
20260510184554 5 173 0.0 0.0 0.00 0.00 0.00 93 1028.6
20260510184046 5 173 0.0 0.0 0.00 0.00 0.00 94 1028.6
20260510183546 5 173 0.0 0.0 0.00 0.00 0.00 93 1028.5
20260510183043 5 173 0.0 0.0 0.00 0.00 0.00 93 1028.5
20260510182644 5 173 0.0 0.0 0.00 0.00 0.00 93 1028.4
20260510182042 5 173 0.0 0.0 0.00 0.00 0.00 93 1028.3
20260510181541 5 173 0.0 0.0 0.00 0.00 0.00 93 1028.2
20260510181041 5 173 0.0 0.0 0.00 0.00 0.00 93 1028.2
20260510180542 6 173 0.0 0.0 0.00 0.00 0.00 93 1028.2
20260510180044 6 173 0.0 0.0 0.00 0.00 0.00 93 1028.2
20260510175540 6 173 0.0 0.0 0.00 0.00 0.00 94 1028.1
20260510175041 6 173 0.0 0.0 0.00 0.00 0.00 94 1028.1
20260510174542 6 173 0.0 0.0 0.00 0.00 0.00 94 1028.0
20260510174039 5 173 0.0 0.0 0.00 0.00 0.00 94 1028.0
20260510173539 5 173 0.0 0.0 0.00 0.00 0.00 94 1028.1
20260510173040 5 173 0.0 0.0 0.00 0.00 0.00 94 1028.1
20260510172538 5 173 0.0 0.0 0.00 0.00 0.00 93 1028.0
20260510172039 5 173 0.0 0.0 0.00 0.00 0.00 93 1028.0
20260510171540 5 173 0.0 0.0 0.00 0.00 0.00 93 1028.0
20260510171037 5 173 0.0 0.0 0.00 0.00 0.00 93 1028.0
20260510170537 5 173 0.0 0.0 0.00 0.00 0.00 93 1028.0
20260510170037 5 173 0.0 0.0 0.00 0.00 0.00 93 1028.0
20260510165536 5 173 0.0 0.0 0.00 0.00 0.00 92 1028.0
20260510165040 5 173 0.0 0.0 0.00 0.00 0.00 92 1028.0
20260510164537 5 173 0.0 0.0 0.00 0.00 0.00 92 1028.0
20260510164035 6 173 0.0 0.0 0.00 0.00 0.00 93 1028.0
20260510163535 6 173 0.0 0.0 0.00 0.00 0.00 93 1028.0
20260510163035 6 173 0.0 0.0 0.00 0.00 0.00 93 1028.1
20260510162534 5 173 0.0 0.0 0.00 0.00 0.00 93 1028.2
20260510162135 5 173 0.0 0.0 0.00 0.00 0.00 92 1028.1
20260510161535 5 173 0.0 0.0 0.00 0.00 0.00 92 1028.1
20260510161032 5 173 0.0 0.0 0.00 0.00 0.00 92 1028.1
20260510160530 6 173 0.0 0.0 0.00 0.00 0.00 92 1028.1
20260510160036 6 173 0.0 0.0 0.00 0.00 0.00 92 1028.1
20260510155534 6 173 0.0 0.0 0.00 0.00 0.00 92 1028.2
20260510155030 6 173 0.0 0.0 0.00 0.00 0.00 93 1028.1
20260510154530 6 173 0.0 0.0 0.00 0.00 0.00 93 1028.1
20260510154030 6 173 0.0 0.0 0.00 0.00 0.00 92 1028.0
20260510153529 6 173 0.0 0.0 0.00 0.00 0.00 92 1028.0
20260510153034 7 173 0.0 0.0 0.00 0.00 0.00 92 1028.0
20260510152531 7 173 0.0 0.0 0.00 0.00 0.00 92 1028.0
20260510152027 7 173 0.0 0.0 0.00 0.00 0.00 92 1028.0
20260510151530 7 173 0.0 0.0 0.00 0.00 0.00 94 1028.0
20260510151026 7 173 0.0 0.0 0.00 0.00 0.00 94 1028.0
20260510150526 6 173 0.0 0.0 0.00 0.00 0.00 92 1028.0
20260510150038 6 173 0.0 0.0 0.00 0.00 0.00 91 1028.0
20260510145528 6 173 0.0 0.0 0.00 0.00 0.00 91 1028.0
20260510145023 6 173 0.0 0.0 0.00 0.00 0.00 92 1028.0
20260510144524 6 173 0.0 0.0 0.00 0.00 0.00 92 1028.0
20260510144023 6 173 0.0 0.0 0.00 0.00 0.00 92 1028.0
20260510143524 6 173 0.0 0.0 0.00 0.00 0.00 92 1027.9
20260510143024 6 173 0.0 0.0 0.00 0.00 0.00 91 1027.9
20260510142520 6 173 0.0 0.0 0.00 0.00 0.00 91 1027.9
20260510142019 6 173 0.0 0.0 0.00 0.00 0.00 91 1027.9
20260510141019 6 173 0.0 0.0 0.00 0.00 0.00 91 1027.9
20260510140516 7 173 0.0 0.0 0.00 0.00 0.00 91 1027.8
20260510140017 7 173 0.0 0.0 0.00 0.00 0.00 91 1027.9
20260510135518 7 173 0.0 0.0 0.00 0.00 0.00 91 1027.9
20260510135014 7 173 0.0 0.0 0.00 0.00 0.00 91 1027.8
20260510134513 7 173 0.0 0.0 0.00 0.00 0.00 90 1027.8
20260510134012 8 173 0.0 0.0 0.00 0.00 0.00 90 1027.8
20260510133510 8 173 0.0 0.0 0.00 0.00 0.00 91 1027.8
20260510133013 8 173 0.0 0.0 0.00 0.00 0.00 90 1027.8
20260510132508 8 173 0.0 0.0 0.00 0.00 0.00 90 1027.8
20260510132008 9 173 0.0 0.0 0.00 0.00 0.00 90 1027.9
20260510131507 10 173 0.0 0.0 0.00 0.00 0.00 91 1027.8
20260510131006 10 173 0.0 0.0 0.00 0.00 0.00 91 1027.8
20260510130505 10 173 0.0 0.0 0.00 0.00 0.00 91 1027.9
20260510130008 10 173 0.0 1.6 0.00 0.00 0.00 91 1027.8
20260510125504 10 173 0.0 1.6 0.00 0.00 0.00 91 1027.9
20260510125005 10 173 0.0 0.0 0.00 0.00 0.00 91 1028.0
20260510124502 10 173 0.0 1.6 0.00 0.00 0.00 91 1028.0
20260510124003 10 173 0.0 1.6 0.00 0.00 0.00 91 1028.0
20260510123501 10 173 0.0 1.6 0.00 0.00 0.00 91 1028.0
20260510123001 10 173 0.0 1.6 0.00 0.00 0.00 91 1028.0
20260510122601 10 171 0.0 1.6 0.00 0.00 0.00 91 1028.1
20260510122059 10 175 0.0 1.6 0.00 0.00 0.00 91 1028.1
20260510121559 10 175 0.0 1.6 0.00 0.00 0.00 92 1028.2
20260510120559 10 214 0.0 1.6 0.00 0.00 0.00 93 1028.1
20260510120055 8 214 0.0 0.0 0.00 0.00 0.00 91 1028.1
20260510115554 8 215 0.0 0.0 0.00 0.00 0.00 89 1028.2
20260510115054 8 215 0.0 0.0 0.00 0.00 0.00 89 1028.1
20260510114553 8 215 0.0 0.0 0.00 0.00 0.00 90 1028.1
20260510114053 8 215 0.0 0.0 0.00 0.00 0.00 89 1027.9
20260510113552 8 215 0.0 0.0 0.00 0.00 0.00 89 1027.8
20260510113051 8 215 0.0 0.0 0.00 0.00 0.00 89 1027.8
20260510112551 8 215 0.0 0.0 0.00 0.00 0.00 89 1027.8
20260510112052 8 215 0.0 0.0 0.00 0.00 0.00 88 1027.8
20260510111551 8 215 0.0 0.0 0.00 0.00 0.00 88 1027.7
20260510111049 8 215 0.0 0.0 0.00 0.00 0.00 88 1027.6
20260510110548 9 215 0.0 0.0 0.00 0.00 0.00 88 1027.6
20260510110049 9 215 0.0 0.0 0.00 0.00 0.00 88 1027.6
20260510105548 9 215 0.0 0.0 0.00 0.00 0.00 88 1027.5
20260510105046 9 215 0.0 0.0 0.00 0.00 0.00 88 1027.5
20260510104545 9 215 0.0 0.0 0.00 0.00 0.00 87 1027.6
20260510104044 10 215 0.0 0.0 0.00 0.00 0.00 87 1027.6
20260510103548 10 215 0.0 0.0 0.00 0.00 0.00 87 1027.5
20260510103050 10 215 0.0 0.0 0.00 0.00 0.00 87 1027.5
20260510102541 10 215 0.0 0.0 0.00 0.00 0.00 87 1027.5
20260510102039 10 215 0.0 0.0 0.00 0.00 0.00 87 1027.5
20260510101538 11 215 0.0 0.0 0.00 0.00 0.00 87 1027.5
20260510101036 11 215 0.0 0.0 0.00 0.00 0.00 86 1027.5
20260510100038 11 215 0.0 0.0 0.00 0.00 0.00 86 1027.4
20260510095532 12 215 0.0 0.0 0.00 0.00 0.00 86 1027.4
20260510095031 12 215 0.0 0.0 0.00 0.00 0.00 86 1027.4
20260510094540 12 215 0.0 0.0 0.00 0.00 0.00 86 1027.5
20260510094031 12 215 0.0 0.0 0.00 0.00 0.00 86 1027.5
20260510093533 13 215 0.0 0.0 0.00 0.00 0.00 86 1027.4
20260510093031 13 215 0.0 0.0 0.00 0.00 0.00 85 1027.4
20260510092531 13 215 0.0 1.6 0.00 0.00 0.00 86 1027.3
20260510092030 13 215 0.0 1.6 0.00 0.00 0.00 85 1027.3
20260510091530 13 216 0.0 1.6 0.00 0.00 0.00 85 1027.2
20260510091032 13 222 0.0 1.6 0.00 0.00 0.00 85 1027.2
20260510090530 13 282 0.0 1.6 0.00 0.00 0.00 85 1027.2
20260510090030 13 196 0.0 3.2 0.00 0.00 0.00 84 1027.2
20260510085530 13 279 0.0 1.6 0.00 0.00 0.00 84 1027.2
20260510085029 13 172 0.0 1.6 0.00 0.00 0.00 83 1027.2
20260510084529 13 165 0.0 4.8 0.00 0.00 0.00 83 1027.1
20260510084028 13 232 0.0 4.8 0.00 0.00 0.00 82 1027.1
20260510083528 13 208 0.0 4.8 0.00 0.00 0.00 82 1027.0
20260510083028 13 207 0.0 1.6 0.00 0.00 0.00 81 1027.0
20260510082527 13 183 0.0 1.6 0.00 0.00 0.00 80 1027.0
20260510082031 13 253 0.0 0.0 0.00 0.00 0.00 80 1027.0
20260510081536 13 253 0.0 1.6 0.00 0.00 0.00 79 1026.9
20260510081027 13 191 0.0 1.6 0.00 0.00 0.00 79 1026.9
20260510080527 13 191 0.0 0.0 0.00 0.00 0.00 78 1026.9
20260510080031 13 194 0.0 1.6 0.00 0.00 0.00 77 1026.8
20260510075526 13 194 0.0 1.6 0.00 0.00 0.00 77 1026.7
20260510075026 13 196 0.0 1.6 0.00 0.00 0.00 76 1026.6
20260510074526 14 144 0.0 3.2 0.00 0.00 0.00 76 1026.6
20260510074026 14 265 0.0 3.2 0.00 0.00 0.00 76 1026.5
20260510073528 14 275 0.0 4.8 0.00 0.00 0.00 76 1026.4
20260510073025 14 275 0.0 4.8 0.00 0.00 0.00 76 1026.4
20260510072525 14 282 0.0 1.6 0.00 0.00 0.00 75 1026.5
20260510072026 14 277 0.0 1.6 0.00 0.00 0.00 75 1026.5
20260510071524 14 291 0.0 3.2 0.00 0.00 0.00 74 1026.5
20260510071024 14 270 0.0 3.2 0.00 0.00 0.00 74 1026.4
20260510070524 15 279 0.0 3.2 0.00 0.00 0.00 73 1026.4
20260510070124 15 176 0.0 3.2 0.00 0.00 0.00 73 1026.4
20260510065525 15 158 0.0 3.2 0.00 0.00 0.00 72 1026.3
20260510065023 15 281 0.0 3.2 0.00 0.00 0.00 72 1026.3
20260510064523 15 208 0.0 4.8 0.00 0.00 0.00 71 1026.2
20260510064023 15 164 0.0 4.8 0.00 0.00 0.00 71 1026.3
20260510063523 15 272 0.0 6.4 0.00 0.00 0.00 72 1026.2
20260510063023 15 278 0.0 6.4 0.00 0.00 0.00 72 1026.2
20260510062523 15 284 0.0 4.8 0.00 0.00 0.00 72 1026.2
20260510062028 15 270 1.6 6.4 0.00 0.00 0.00 72 1026.2
20260510061527 15 263 1.6 6.4 0.00 0.00 0.00 71 1026.2
20260510061023 15 291 1.6 6.4 0.00 0.00 0.00 71 1026.2
20260510060527 15 273 1.6 6.4 0.00 0.00 0.00 71 1026.1
20260510060021 16 179 0.0 6.4 0.00 0.00 0.00 71 1026.2
20260510055521 16 283 1.6 6.4 0.00 0.00 0.00 71 1026.1
20260510055023 16 292 1.6 6.4 0.00 0.00 0.00 69 1026.2
20260510054522 16 296 0.0 4.8 0.00 0.00 0.00 67 1026.2
20260510054021 16 162 0.0 4.8 0.00 0.00 0.00 67 1026.2
20260510053521 17 289 0.0 3.2 0.00 0.00 0.00 65 1026.1
20260510053021 17 304 0.0 3.2 0.00 0.00 0.00 66 1026.1
20260510052521 17 181 0.0 4.8 0.00 0.00 0.00 67 1026.1
20260510052021 16 284 1.6 6.4 0.00 0.00 0.00 67 1026.1
20260510051530 16 292 0.0 3.2 0.00 0.00 0.00 67 1026.1
20260510051020 16 291 0.0 4.8 0.00 0.00 0.00 67 1026.0
20260510050521 16 323 1.6 4.8 0.00 0.00 0.00 66 1026.1
20260510050020 16 285 0.0 6.4 0.00 0.00 0.00 68 1026.0
20260510045620 16 285 0.0 8.0 0.00 0.00 0.00 67 1026.0
20260510045020 16 270 1.6 8.0 0.00 0.00 0.00 68 1026.1
20260510044519 16 317 1.6 9.7 0.00 0.00 0.00 68 1026.1
20260510044019 16 289 3.2 9.7 0.00 0.00 0.00 67 1026.1
20260510043519 16 259 1.6 8.0 0.00 0.00 0.00 67 1026.1
20260510043023 16 269 1.6 12.9 0.00 0.00 0.00 68 1026.1
20260510042518 15 260 1.6 12.9 0.00 0.00 0.00 68 1026.1
20260510042019 16 273 0.0 8.0 0.00 0.00 0.00 67 1026.2
20260510041518 16 288 0.0 8.0 0.00 0.00 0.00 66 1026.2
20260510041018 16 297 0.0 3.2 0.00 0.00 0.00 66 1026.3
20260510040518 16 149 0.0 6.4 0.00 0.00 0.00 65 1026.3
20260510040018 16 208 1.6 6.4 0.00 0.00 0.00 65 1026.4
20260510035517 16 162 1.6 6.4 0.00 0.00 0.00 65 1026.5
20260510035019 16 181 1.6 6.4 0.00 0.00 0.00 64 1026.5
20260510034517 16 242 0.0 6.4 0.00 0.00 0.00 66 1026.5
20260510034019 16 272 0.0 4.8 0.00 0.00 0.00 65 1026.6
20260510033516 16 285 0.0 4.8 0.00 0.00 0.00 66 1026.6
20260510033017 16 148 1.6 8.0 0.00 0.00 0.00 65 1026.7
20260510032516 16 265 0.0 8.0 0.00 0.00 0.00 65 1026.7
20260510032016 16 218 0.0 8.0 0.00 0.00 0.00 66 1026.7
20260510031516 16 163 1.6 9.7 0.00 0.00 0.00 64 1026.7
20260510031015 16 144 1.6 6.4 0.00 0.00 0.00 64 1026.7
20260510030515 17 300 1.6 6.4 0.00 0.00 0.00 64 1026.8
20260510030016 17 242 0.0 6.4 0.00 0.00 0.00 65 1026.9
20260510025513 16 257 1.6 6.4 0.00 0.00 0.00 66 1026.8
20260510024512 16 279 1.6 8.0 0.00 0.00 0.00 67 1027.0
20260510024011 16 285 0.0 4.8 0.00 0.00 0.00 69 1027.1
20260510023512 15 177 0.0 9.7 0.00 0.00 0.00 69 1027.2
20260510023013 16 124 3.2 9.7 0.00 0.00 0.00 68 1027.2
20260510022513 16 310 1.6 8.0 0.00 0.00 0.00 69 1027.3
20260510022011 16 298 1.6 8.0 0.00 0.00 0.00 70 1027.3
20260510021515 16 216 1.6 6.4 0.00 0.00 0.00 69 1027.3
20260510021010 16 173 0.0 6.4 0.00 0.00 0.00 70 1027.4
20260510020510 16 290 0.0 4.8 0.00 0.00 0.00 70 1027.4
20260510020010 16 176 0.0 6.4 0.00 0.00 0.00 70 1027.5
20260510015509 16 208 0.0 4.8 0.00 0.03 0.00 70 1027.6
20260510015009 16 162 0.0 4.8 0.00 0.03 0.00 70 1027.6
20260510014510 16 191 0.0 1.6 0.00 0.03 0.00 70 1027.7
20260510014008 16 281 0.0 4.8 0.00 0.03 0.00 71 1027.7
20260510013508 16 185 0.0 4.8 0.00 0.03 0.00 71 1027.8
20260510013006 16 296 0.0 4.8 0.00 0.03 0.00 72 1027.8
20260510012508 15 184 0.0 6.4 0.00 0.03 0.00 74 1027.8
20260510012005 15 193 0.0 8.0 0.00 0.03 0.00 75 1027.8
20260510011506 15 294 1.6 8.0 0.00 0.03 0.00 74 1027.9
20260510011005 15 195 0.0 4.8 0.00 0.03 0.00 75 1027.9
20260510010505 15 238 0.0 4.8 0.00 0.03 0.00 75 1027.9
20260510010003 15 200 0.0 6.4 0.00 0.03 0.00 75 1027.9
20260510005502 15 296 0.0 6.4 0.00 0.03 0.00 76 1027.8
20260510005003 15 285 0.0 3.2 0.00 0.03 0.00 77 1027.9
20260510004002 15 167 0.0 3.2 0.00 0.03 0.00 78 1027.9
20260510003502 15 289 0.0 1.6 0.00 0.03 0.00 79 1027.9
20260510003003 15 297 0.0 1.6 0.00 0.03 0.00 78 1027.9
20260510002503 15 296 0.0 3.2 0.00 0.03 0.00 77 1028.0
20260510002001 15 270 0.0 3.2 0.00 0.03 0.00 76 1027.8
20260510001502 15 259 0.0 1.6 0.00 0.03 0.00 75 1027.9
20260510001002 15 259 0.0 1.6 0.00 0.03 0.00 74 1027.9
20260510000601 15 223 0.0 1.6 0.00 0.03 0.00 73 1027.9
20260510000501 15 270 0.0 1.6 0.00 0.03 0.00 73 1027.9
20260510000100 15 254 0.0 1.6 0.00 0.03 0.00 73 1027.8
20260509235602 15 260 0.0 3.2 0.00 0.05 0.00 73 1027.8
20260509235101 15 165 0.0 3.2 0.00 0.05 0.00 73 1027.8
20260509234558 15 161 0.0 3.2 0.00 0.05 0.00 73 1027.8
20260509234058 15 168 0.0 3.2 0.00 0.05 0.00 73 1027.8
20260509233559 15 157 0.0 3.2 0.00 0.05 0.00 74 1027.7
20260509233057 15 164 0.0 3.2 0.00 0.05 0.00 74 1027.8
20260509232557 15 159 0.0 3.2 0.00 0.05 0.00 74 1027.8
20260509232056 15 173 0.0 1.6 0.00 0.05 0.00 75 1027.8
20260509231606 14 223 0.0 1.6 0.00 0.05 0.00 76 1027.8
20260509231056 14 253 0.0 1.6 0.00 0.05 0.00 77 1027.8
20260509230557 14 185 0.0 1.6 0.00 0.05 0.00 78 1027.7
20260509230052 14 194 0.0 1.6 0.00 0.05 0.00 78 1027.7
20260509225551 13 196 0.0 1.6 0.00 0.05 0.00 79 1027.7
20260509225049 13 185 0.0 1.6 0.00 0.05 0.00 79 1027.7